Regional Weather Roundup
Issued by NWS

Home | Current Version | Previous Version | Text Only | Print | Product List | Glossary On
Versions: 1 2 3 4 5 6 7 8 9 10 11 12 13 14 15 16 17 18 19 20 21 22 23 24 25 26 27 28 29 30 31 32 33 34 35 36 37 38 39 40 41 42 43 44 45 46 47 48 49 50
000
ASUS42 KTBW 030820
RWRFL
FLORIDA REGIONAL WEATHER ROUNDUP
NATIONAL WEATHER SERVICE TAMPA BAY RUSKIN FL
400 AM EDT THU SEP 03 2015

NOTE: "FAIR" INDICATES FEW OR NO CLOUDS BELOW 12,000 FEET WITH NO
SIGNIFICANT WEATHER AND/OR OBSTRUCTIONS TO VISIBILITY.


FLZ001>010-012>015-112-114-115-030900-
PANHANDLE FLORIDA

CITY           SKY/WX    TMP DP  RH WIND       PRES   REMARKS
PENSACOLA      PTCLDY    79  74  84 NW5       29.97F
MILTON NAS     MOCLDY    77  73  87 W7        29.97
CRESTVIEW      MOCLDY    79  73  82 W3        29.98S
DUKE FIELD     FAIR      78  73  85 W6        29.96F
VALPARAISO     MOCLDY    79  74  84 NW2       29.97S
MARY ESTHER    CLOUDY    80  74  83 NW6       29.96S
PANAMA CITY    FAIR      76  73  91 NW3       29.96S
TYNDALL AFB    PTCLDY    82  76  83 NW7       29.96S
APALACHICOLA   PTCLDY    75  74  96 CALM      29.96S

STATION/POSITION SKY/WX   TEMP    WIND        PRES    WAVE   SWELL
                          AIR SEA DIR/SP/G            HT/PER HT/PER
                          (F)     (DEG/KT/KT) (MB)    (FT/S) (FT/S)
30.1N   87.6W              84 86  280/  4/  6 1014.1F   1
29.2N   88.2W              83 84  170/  2/  4 1014.4F   1/ 6
28.8N   86.0W              84 87  270/  6/  6 1014.9F   1
PANAMA CITY BEAC           84 86  280/ 12/ 13 1014.7F
CAPE SAN BLAS    NOT AVBL
TOWER C                    84     280/ 10/ 10 1014.6F
28.5N   84.5W              85 86  270/  8/ 10 1014.6F   1/ 6

$$
FLZ011-016>038-118-127-128-134-139-239-030900-
NORTH FLORIDA

CITY           SKY/WX    TMP DP  RH WIND       PRES   REMARKS
MARIANNA       CLEAR     77  73  87 SW5       29.95S
TALLAHASSEE    PTCLDY    77  73  87 W5        29.96S
PERRY          CLEAR     76  74  92 CALM      29.96F
CROSS CITY       N/A     77  75  93 CALM      29.95F
LAKE CITY      FAIR      73  73 100 CALM      29.95F
GAINESVILLE    PTCLDY    74  73  97 CALM      29.96F
MAYPORT NAS    PTCLDY    77  75  93 SW3       29.94S
JACKSONVILLE   MOCLDY    75  74  96 W6        29.93F
JAX NAS        PTCLDY    81  74  79 W6        29.94F
JAX CRAIG      PTCLDY    77  75  93 SW3       29.94F
JAX CECIL      CLEAR     75  75 100 SW3       29.95F
FERNANDINA BEA FAIR      79  75  89 W5        29.93R
ST AUGUSTINE   PTCLDY    76  75  97 SW3       29.95F

STATION/POSITION SKY/WX   TEMP    WIND        PRES    WAVE   SWELL
                          AIR SEA DIR/SP/G            HT/PER HT/PER
                          (F)     (DEG/KT/KT) (MB)    (FT/S) (FT/S)
SHELL POINT                80     300/  5/  7   N/A
KEATON BEACH               84     290/ 12/ 14 1014.3F
CEDAR KEY                  83     300/  7/  9 1014.7F
FERNANDINA                 78 85  230/  8/  9 1013.0F
30.7N   81.3W                 85                N/A     2/10
MAYPORT                    79 85  230/  7/  8 1014.2F
31.4N   80.9W              78 84  120/  8/  8 1013.5F   2/ 9   2/ 9
ST AUGUSTINE               76 83  250/  5/  6 1014.8F

$$
FLZ040-043>046-052-053-057-058-063-144-030900-
INTERIOR CENTRAL FLORIDA

CITY           SKY/WX    TMP DP  RH WIND       PRES   REMARKS
OCALA          CLEAR     73  72  94 CALM      29.97S
THE VILLAGES   FOG       75  75 100 CALM      29.87F VSB 1/2
LEESBURG       CLEAR     78  75  90 CALM      29.97F
SANFORD        CLEAR     77  74  90 W5        29.95F
ORLANDO EXEC   CLEAR     80  76  87 CALM      29.96F
ORLANDO INTL   MOCLDY    77  75  93 CALM      29.96F
WINTER HAVEN   CLEAR     78  76  93 NW3       29.97F
LAKELAND       CLEAR     77  73  88 CALM      29.98S
BARTOW         FAIR      77  77 100 CALM      29.97F
OKEECHOBEE       N/A     75  75 100 CALM      29.97F

$$
FLZ041-047-054-059-064-141-147-030900-
EAST CENTRAL FLORIDA

CITY           SKY/WX    TMP DP  RH WIND       PRES   REMARKS
DAYTONA BEACH  PTCLDY    75  74  96 CALM      29.95F
DELAND           N/A     77  73  88 CALM      29.96F
CAPE CANAVERAL PTCLDY    80  75  85 SW3       29.94F
PATRICK AFB    CLEAR     81  77  87 SW8       29.94F
MELBOURNE      CLEAR     78  76  93 SW5       29.95F
VERO BEACH     PTCLDY    80  75  84 SW3       29.96F
FT PIERCE      PTCLDY    79  76  90 S3        29.95F
STUART           N/A     77  73  88 CALM      29.97F

STATION/POSITION SKY/WX   TEMP    WIND        PRES    WAVE   SWELL
                          AIR SEA DIR/SP/G            HT/PER HT/PER
                          (F)     (DEG/KT/KT) (MB)    (FT/S) (FT/S)
28.5N   80.2W              83 85  220/ 14/ 16 1014.6F
28.9N   78.5W              84 86  150/  8/ 10 1014.7F
TRIDENT PIER               83 87  200/  8/ 10 1015.2F
28.4N   80.5W                 85                N/A     2/ 8
27.5N   80.2W                 84                N/A     2/13

$$
FLZ050-056-061-142-242-148-248-149-249-151-251-155-255-
160-260-030900-
WEST CENTRAL FLORIDA

CITY           SKY/WX    TMP DP  RH WIND       PRES   REMARKS
CRYSTAL RIVER  FAIR      73  73 100 CALM      29.96F
INVERNESS      FAIR      73  73 100 CALM      29.97S
BROOKSVILLE    CLEAR     75  73  93 CALM      29.97F
CLEARWATER     CLEAR     78  76  93 CALM      29.96F
TAMPA INTL     PTCLDY    81  76  84 CALM      29.97S
TAMPA EXEC     CLEAR     77  73  88 CALM      29.98S
PLANT CITY     CLEAR     77  77 100 CALM      29.99F
MACDILL AFB    PTCLDY    78  78 100 CALM      29.96F
PETER O KNIGHT PTCLDY    81  79  94 CALM      29.97S
ST PETERSBURG  CLEAR     83  76  79 CALM      29.95S
SARASOTA       CLEAR     77  76  96 SE5       29.96S
VENICE         FAIR      79  75  89 CALM      29.98S

STATION/POSITION SKY/WX   TEMP    WIND        PRES    WAVE   SWELL
                          AIR SEA DIR/SP/G            HT/PER HT/PER
                          (F)     (DEG/KT/KT) (MB)    (FT/S) (FT/S)
CEDAR KEY                  83     300/  7/  9 1014.7F
28.5N   84.5W              85 86  270/  8/ 10 1014.6F   1/ 6
27.3N   84.2W                 87                N/A     1/ 7
CLEARWATER BEACH           84 87  290/  6/  8 1014.8F
MIDDLE TAMPA BAY                  340/  3/  4 1015.0F
VENICE                     80 87   80/  4/  5 1014.5F

$$
FLZ066-069-070-075>078-162-262-165-265-030900-
SOUTHWEST FLORIDA AND KEYS

CITY           SKY/WX    TMP DP  RH WIND       PRES   REMARKS
PUNTA GORDA    PTCLDY    78  77  96 NW3       29.98S
FT MYERS       MOCLDY    80  75  84 CALM      29.96S
SOUTHWEST INTL MOCLDY    80  77  90 CALM      29.96F
NAPLES         MOCLDY    80  75  84 CALM      29.96F
MARCO ISLAND   SUNNY     79  73  83 CALM      29.96F
MARATHON       CLEAR     84  76  76 SE5       29.96F
KEY WEST NAS   PTCLDY    83  76  79 SE6       29.96F
KEY WEST INTL  PTCLDY    85  77  77 SE7       29.97F HX  95

STATION/POSITION SKY/WX   TEMP    WIND        PRES    WAVE   SWELL
                          AIR SEA DIR/SP/G            HT/PER HT/PER
                          (F)     (DEG/KT/KT) (MB)    (FT/S) (FT/S)
VENICE                     80 87   80/  4/  5 1014.5F
NAPLES                        86              1015.8F
26.0N   85.6W              85 86  140/  4/  6 1015.0F   2/ 5   2/ 5
DRY TORTUGAS                                    N/A
NW FL BAY                  84      40/  1/  2 1015.1
SAND KEY                   85        CALM     1014.8F
LONG KEY                   84 88  120/  7/  7 1015.3F
MOLASSES REEF              84 87  110/  4/  5 1014.6F

$$
FLZ067-068-071>074-168-172>174-030900-
SOUTHEAST FLORIDA

CITY           SKY/WX    TMP DP  RH WIND       PRES   REMARKS
W PALM BEACH   PTCLDY    78  76  93 W3        29.97S
FT LAUDER-EXEC PTCLDY    80  77  90 CALM      29.96F
FT LAUDERDALE  PTCLDY    81  78  91 CALM      29.96F
POMPANO BEACH  CLEAR     81  76  84 CALM      29.96F
PEMBROKE PINES CLEAR     80  76  87 CALM      29.98S
OPA LOCKA      CLEAR     80  77  90 CALM      29.97F
MIAMI          PTCLDY    80  78  94 CALM      29.97F
WEST KENDALL   CLEAR     77  76  96 CALM      29.97S
HOMESTEAD      CLEAR     79  77  94 CALM      29.96F

STATION/POSITION SKY/WX   TEMP    WIND        PRES    WAVE   SWELL
                          AIR SEA DIR/SP/G            HT/PER HT/PER
                          (F)     (DEG/KT/KT) (MB)    (FT/S) (FT/S)
PORT EVERGLADES            83     240/  2/  3 1014.8F
VIRGINIA KEY               84 87  160/  4/  5 1014.7F
LAKE WORTH                 83 87  220/  4/  5 1014.5F
SETTLEMENT POINT           81     150/  5/  6 1015.1F

$$




USA.gov is the U.S. government's official web portal to all federal, state and local government web resources and services.